Other Public Products
Issued by NWS Grand Forks, ND

Home | Current Version | Previous Version | Text Only | Print | Product List | Glossary On
Versions: 1 2 3 4 5 6 7 8 9 10 11 12 13 14 15 16 17 18 19 20 21 22 23 24 25 26 27 28 29 30 31 32 33 34 35 36 37 38 39 40 41 42 43 44 45 46 47 48 49 50
000
FPUS83 KFGF 190931
OPUFGF
PRAIRIE TO PINES WEATHER ROUNDUP
NATIONAL WEATHER SERVICE EASTERN NORTH DAKOTA/GRAND FORKS ND
300 AM CST FRI DEC 19 2014

 **SATELLITE DATA USED TO AUGMENT SKY COVER AT AUTOMATED STATIONS**
 *****  WEATHER ACROSS EASTERN NORTH DAKOTA  *****

CITY           SKY/WX    TMP DP  RH WIND       PRES   REMARKS
GRAND FORKS    CLOUDY    21  18  88 S14       30.11S WCI   8
GRAND FORKS AF CLOUDY    21  21  99 S13       30.10S WCI   9
GRAND CITY NWS NOT AVBL
BUXTON           N/A     21  20  95 SE12        N/A  WCI   9
DEVILS LAKE    CLOUDY    25  18  74 S10       29.99F WCI  15
FARGO          CLOUDY    23  19  85 SE14      30.14S WCI  11
WAHPETON ARPT  CLOUDY    23  21  93 S8        30.15F WCI  14
$$

 *****  WEATHER ACROSS CENTRAL AND WESTERN NORTH DAKOTA  *****

CITY           SKY/WX    TMP DP  RH WIND       PRES   REMARKS
JAMESTOWN      CLOUDY    25  24  96 S8        30.03S FOG     WCI  16
BISMARCK       CLEAR     18  15  88 SE5       29.98S WCI  11
MINOT          CLOUDY    26  24  92 SE3       29.95R FOG
MINOT AFB      FRZ DRZL  25  25 100 SE6       29.95R FOG     WCI  18
GARRISON         N/A     24  23  96 SE6       29.93S WCI  17
WILLISTON      FOG       25  24  96 CALM      29.92S VSB 1/4
DICKINSON      CLOUDY    30  25  81 SW9       29.89S WCI  22
HETTINGER      MOCLDY    26  22  84 CALM      29.95R
$$

 *****  OTHER OBSERVATIONS NORTHEAST NORTH DAKOTA  *****

CITY           SKY/WX    TMP DP  RH WIND       PRES   REMARKS
WALHALLA         N/A     19  19 100 SE10      30.08S FOG     WCI   8
LANGDON        CLOUDY    23  21  93 S14       30.01S FOG     WCI  11
CAVALIER       CLOUDY    19  19 100 S9        30.09F FOG     WCI   9
GRAFTON        NOT AVBL
CANDO          CLOUDY    23  23 100 S7        30.01S FOG     WCI  15
FORT TOTTEN      N/A     23  22  95 SE7       29.95S WCI  15
ROLLA          CLOUDY    23  23 100 S6        29.98S FOG     WCI  16
RUGBY          CLOUDY    25  25 100 SE6       29.98S FOG     WCI  18
 ***** THE ABOVE OBSERVATIONS ARE NON NWS ARE NOT QUALITY
        CONTROLLED AND MAY MIS-REPORT RAIN FOR SNOW...
$$

 *****  OTHER OBSERVATIONS SOUTHEAST NORTH DAKOTA *****

CITY           SKY/WX    TMP DP  RH WIND       PRES   REMARKS
COOPERSTOWN    NOT AVBL
VALLEY CITY    CLOUDY    25  25 100 S8        30.06F FOG     WCI  16
OAKES            N/A     27  27 100 S9        30.08S FOG     WCI  17
GWINNER        CLOUDY    30  30 100 MISG      30.10F
SHEYENNE NWR     N/A     23  21  93 S7        29.95  WCI  15
BUFFALO        NOT AVBL
WYNDMERE         N/A     23  23 100 SE8         N/A  WCI  14
 ***** THE ABOVE OBSERVATIONS ARE NON NWS ARE NOT QUALITY
       CONTROLLED AND MAY MIS-REPORT RAIN FOR SNOW...
$$

  *****  WEATHER ACROSS NORTHERN MINNESOTA  *****

CITY           SKY/WX    TMP DP  RH WIND       PRES   REMARKS
FLAG ISLAND    CLOUDY    19  16  86 S13       30.15S WCI   7
WARROAD        CLOUDY    19  16  86 S10       30.14F WCI   8
ROSEAU         CLOUDY    21  16  79 S10       30.14S WCI  10
HALLOCK        PTCLDY    21  19  93 S15       30.11S FOG     WCI   8
THF RVR FALLS  CLOUDY    21  18  86 SE9       30.13F WCI  11
HALSTAD          N/A     22  18  83 S14         N/A  WCI   9
FOSSTON        FLURRIES  19  18  93 SE7       30.14F WCI  10
BAUDETTE       CLOUDY    20  15  81 S6        30.15F WCI  12
WASKISH        CLOUDY    19  18  93 CALM      30.16F
CROOKSTON      MOCLDY    21  19  93 S12       30.14F WCI   9
$$
  *****  WEATHER ACROSS CENTRAL AND WEST MINNESOTA  *****

CITY           SKY/WX    TMP DP  RH WIND       PRES   REMARKS
BEMIDJI        CLOUDY    19  15  86 S6        30.16F WCI  10
PARK RAPIDS    CLOUDY    19  15  84 SE9       30.16S WCI   8
WADENA         CLOUDY    19  16  86 NW7       30.17S WCI  10
DETROIT LAKES  CLOUDY    21  19  93 SE12      30.15S WCI   9
MOORHEAD       LGT RAIN  23  23 100 S12       30.15S WCI  12
FERGUS FALLS   CLOUDY    21  18  86 S12       30.19S WCI   9
ELBOW LAKE     CLOUDY    21  20  95 SE13      30.16S WCI   9
MORRIS MN      CLOUDY    23  21  93 SE9       30.17S FOG     WCI  13
STAPLES        FLURRIES  18  16  93 SE6       30.19F WCI   9
WHEATON        CLOUDY    21  19  93 SE13      30.17F WCI   9
$$
  *****  WEATHER ELSEWHERE ACROSS MINNESOTA  *****

CITY           SKY/WX    TMP DP  RH WIND       PRES   REMARKS
DULUTH         CLOUDY    20  17  88 SW6       30.22R WCI  12
INTRNTL FALLS  CLOUDY    21  17  84 S5        30.18F WCI  15
ELY            CLOUDY    21  18  86 S6        30.20F WCI  14
CLOQUET        CLOUDY    19  18  93 SW5       30.22F WCI  13
BRAINERD       LGT SNOW  19  15  84 S6        30.22S FOG     WCI  11
HIBBING        CLOUDY    21  17  84 S5        30.21R WCI  15
ALEXANDRIA     CLOUDY    20  18  92 SE9       30.18S FOG     WCI   9
SAINT CLOUD    LGT SNOW  22  16  78 SE7       30.24R WCI  13
MINNEAPOLIS    CLOUDY    21  15  78 SE5       30.27F WCI  15
$$

  *****  WEATHER ACROSS SOUTH DAKOTA  *****

CITY           SKY/WX    TMP DP  RH WIND       PRES   REMARKS
SIOUX FALLS    CLOUDY    28  25  88 S9        30.16F WCI  19
BROOKINGS      NOT AVBL
WATERTOWN      CLOUDY    26  25  96 S8        30.10F FOG     WCI  18
HURON          CLOUDY    28  25  88 S12       30.11S WCI  18
SISSETON         N/A     24  23  96 S12       30.13  WCI  13
ABERDEEN       CLOUDY    28  24  85 S12       30.09F WCI  18
MITCHELL       CLOUDY    29  26  89 S9        30.13F WCI  20
PIERRE         FOG       13  10  88 CALM      30.04S VSB 1/4
MOBRIDGE       CLEAR     22  19  89 SE8       29.99R WCI  12
RAPID CITY     CLEAR     24  16  71 NW3       29.99R
$$

  *****  SOME WEATHER IN NEARBY STATES *****

CITY           SKY/WX    TMP DP  RH WIND       PRES   REMARKS
GLASGOW MT     FOG       20  17  88 CALM      29.91S VSB 1/4
GREAT FALLS MT CLEAR     31  25  78 SW13      29.88F WCI  21
CHEYENNE WY    CLEAR     22  11  62 SW6       30.03F WCI  14
SCOTTSBLUFF NE PTCLDY     4   0  83 CALM      30.06S
OMAHA NE       CLOUDY    31  28  89 S7        30.25R WCI  24
DES MOINES IA  FRZ DRZL  29  24  82 E3        30.27F
DAVENPORT IA   CLEAR     16  11  80 CALM      30.31R HAZE
CHICAGO IL     CLOUDY    28  22  78 NW5       30.26F WCI  23
EAU CLAIRE WI  CLOUDY    24  19  81 SW5       30.28R WCI  18
LA CROSSE WI   CLOUDY    26  18  71 CALM      30.30S
$$

  *****  SOME NATIONAL WEATHER *****

CITY           SKY/WX    TMP DP  RH WIND       PRES   REMARKS
LA GUARDIA NY  PTCLDY    37  25  61 NW13      29.97S
RALEIGH NC     MOCLDY    41  29  62 CALM      30.11S
ATLANTA GA     MOCLDY    39  32  76 NW7       30.12S
NEW ORLEANS LA CLOUDY    58  51  78 E9        30.05F
OKLAHOMA CITY  CLOUDY    39  37  93 N9        30.17F FOG
ALBUQUERQUE NM CLEAR     34  27  75 NW9       30.16R
SALT LAKE CITY PTCLDY    33  27  78 SE13      30.18S WCI  24
LOS ANGELES CA MOCLDY    54  48  80 CALM      30.21S
BOISE ID       CLOUDY    43  32  65 SE9       30.06F
SEATTLE WA     LGT RAIN  48  45  89 S12       29.80R
$$

*** WEATHER ACROSS MANITOBA...SASKATCHEWAN AND ONTARIO ***
                ***ONTARIO***

CITY           SKY/WX    TMP DP  RH WIND       PRES   REMARKS
GERALDTON      CLEAR    -11 -15  84 S1        30.26S
THUNDER BAY    CLEAR      0  -4  85 SW5       30.32S WCI -10
SIOUX LOOKOUT  FLURRIES  14  10  85 S3        30.19
TORONTO        CLOUDY    25  19  80 N9        30.13S WCI  15
BIG TROUT LK   CLEAR      0  -2  92 SW3       30.17S
PICKLE LAKE    NOT AVBL
DRYDEN         CLOUDY    18  16  93 SE7       30.16F WCI   8
KENORA         CLOUDY    18  14  86 S10       30.15  WCI   6
$$
                *** MANITOBA***

CITY           SKY/WX    TMP DP  RH WIND       PRES   REMARKS
BRANDON        CLOUDY    19  18  93 SE3       30.00S
DAUPHIN        CLOUDY    16  14  93 SE6       30.02S WCI   7
ISLAND LAKE    CLEAR      5   1  85 S5        30.10S WCI  -4
PILOT MOUND      N/A     21  21 100 S7          N/A  WCI  13
THE PAS        CLOUDY    16  14  93 SE6       29.97R WCI   7
THOMPSON       FLURRIES   9   5  85 CALM      29.99
WINNIPEG       FRZ DRZL  19  18  93 S12       30.11  FOG     WCI   7
LYNN LAKE      FLURRIES  14  12  92 SW6       29.89R WCI   5
CHURCHILL      FLURRIES   7   3  85 S2        29.97
GILLAM         LGT SNOW   7   3  85 S7        30.02S WCI  -5
$$
                ***SASKATCHEWAN***

CITY           SKY/WX    TMP DP  RH WIND       PRES   REMARKS
ESTEVAN        LGT SNOW  25  23  93 W7        29.92R FOG     WCI  17
KINDERSLEY     FOG       10   7  85 VRB2      29.88S VSB 1/8
LLOYDMINSTER   FOG       10   7  85 SW6       29.87R VSB 1/2 WCI   1
PRINCE ALBERT  FLURRIES  19  18  93 W8        29.92R WCI   9
REGINA         FOG       23  23 100 W3        29.90S VSB 1/4


USA.gov is the U.S. government's official web portal to all federal, state and local government web resources and services.